Tracking 30703 objects as of 13-Jun-2025
HD Live streaming from Space Station
objects crossing your sky now

STARLINK-30261

Track STARLINK-30261 now!
10-day predictions
STARLINK-30261 is classified as:


NORAD ID: 57523
Int'l Code: 2023-115C
Perigee: 565.5 km
Apogee: 566.9 km
Inclination: 43.0 °
Period: 95.8 minutes
Semi major axis: 6937 km
RCS: Unknown
Launch date: August 8, 2023
Source: United States (US)
Launch site: AIR FORCE WESTERN TEST RANGE (AFWTR)
Your satellite tracking list
Your tracking list is empty




NASA's NSSDC Master Catalog

Two Line Element Set (TLE):
1 57523U 23115C   25164.59891471  .00001043  00000-0  92223-4 0  9996
2 57523  43.0049  27.1054 0000996 258.7189 101.3541 15.02543958101837
Source of the keplerian elements: AFSPC